TimeEST,TemperatureF,Dew PointF,Humidity,Sea Level PressureIn,VisibilityMPH,Wind Direction,Wind SpeedMPH,Gust SpeedMPH,PrecipitationIn,Events,Conditions,WindDirDegrees,DateUTC
12:53 AM,46.9,33.1,59,29.98,10.0,South,5.8,-,0.00,,Overcast,190,2013-11-10 05:53:00
1:53 AM,48.0,34.0,58,29.95,10.0,South,6.9,-,N/A,,Overcast,180,2013-11-10 06:53:00
2:53 AM,48.9,35.1,59,29.93,10.0,South,4.6,-,N/A,,Overcast,190,2013-11-10 07:53:00
3:53 AM,48.0,36.0,63,29.91,10.0,South,4.6,-,N/A,,Overcast,190,2013-11-10 08:53:00
4:53 AM,46.9,35.1,63,29.90,10.0,South,4.6,-,N/A,,Overcast,180,2013-11-10 09:53:00
5:53 AM,46.0,34.0,63,29.89,10.0,South,5.8,-,N/A,,Overcast,180,2013-11-10 10:53:00
6:53 AM,46.0,34.0,63,29.88,10.0,South,5.8,-,N/A,,Overcast,170,2013-11-10 11:53:00
7:53 AM,46.9,33.1,59,29.88,10.0,South,5.8,-,N/A,,Overcast,170,2013-11-10 12:53:00
8:53 AM,48.9,32.0,52,29.87,10.0,SSE,6.9,-,N/A,,Scattered Clouds,160,2013-11-10 13:53:00
9:53 AM,54.0,32.0,43,29.85,10.0,Variable,4.6,-,N/A,,Clear,0,2013-11-10 14:53:00
10:53 AM,57.0,33.1,40,29.81,10.0,Variable,4.6,-,N/A,,Clear,0,2013-11-10 15:53:00
11:53 AM,59.0,33.1,38,29.78,10.0,West,9.2,24.2,N/A,,Mostly Cloudy,270,2013-11-10 16:53:00
12:53 PM,57.9,30.9,36,29.76,10.0,West,9.2,21.9,N/A,,Mostly Cloudy,260,2013-11-10 17:53:00
1:53 PM,48.9,39.9,71,29.82,10.0,WNW,10.4,-,0.00,Rain,Light Rain,300,2013-11-10 18:53:00
2:53 PM,46.9,37.9,71,29.85,10.0,West,8.1,-,0.00,Rain,Light Rain,280,2013-11-10 19:53:00
3:53 PM,48.0,35.1,61,29.85,10.0,WNW,6.9,-,0.00,,Clear,290,2013-11-10 20:53:00
4:53 PM,45.0,33.1,63,29.86,10.0,Calm,Calm,-,N/A,,Clear,0,2013-11-10 21:53:00
5:53 PM,39.9,33.1,77,29.89,10.0,Calm,Calm,-,N/A,,Partly Cloudy,0,2013-11-10 22:53:00
6:53 PM,37.0,32.0,82,29.91,10.0,Calm,Calm,-,N/A,,Scattered Clouds,0,2013-11-10 23:53:00
7:53 PM,41.0,33.1,73,29.91,10.0,SW,4.6,-,N/A,,Mostly Cloudy,220,2013-11-11 00:53:00
8:53 PM,39.9,33.1,77,29.93,10.0,SSW,5.8,-,N/A,,Overcast,200,2013-11-11 01:53:00
9:53 PM,46.0,32.0,58,29.94,10.0,Variable,5.8,-,N/A,,Overcast,0,2013-11-11 02:53:00
10:53 PM,46.9,30.0,52,29.94,10.0,Variable,4.6,-,N/A,,Overcast,0,2013-11-11 03:53:00
11:53 PM,46.9,28.0,48,29.96,10.0,WNW,4.6,-,N/A,,Overcast,300,2013-11-11 04:53:00